This is the latest recevied weather packets stored in our database for station/object KJ4EBE. If no packets are shown the sender has not sent any weather packets the latest 10 day(s).
| Time | Temp. | Humidity | Pressure | Rain* | Wind** | Luminosity | Snow |
|---|---|---|---|---|---|---|---|
| 1778010117 | 30.56° C | 64% | 1006.1 hPa | 0 mm | - | 597 W/m² | - |
| 1778009814 | 30.56° C | 64% | 1006 hPa | 0 mm | - | 627 W/m² | - |
| 1778009511 | 30.56° C | 65% | 1006.1 hPa | 0 mm | - | 733 W/m² | - |
| 1778009209 | 30° C | 66% | 1006.4 hPa | 0 mm | - | 679 W/m² | - |
| 1778008907 | 30° C | 66% | 1006.3 hPa | 0 mm | - | 683 W/m² | - |
| 1778008605 | 30° C | 67% | 1006.3 hPa | 0 mm | - | 722 W/m² | - |
| 1778008303 | 30° C | 68% | 1006.4 hPa | 0 mm | - | 698 W/m² | - |
| 1778007998 | 30° C | 68% | 1006.4 hPa | 0 mm | - | 779 W/m² | - |
| 1778007693 | 29.44° C | 68% | 1006.3 hPa | 0 mm | - | 679 W/m² | - |
| 1778007390 | 29.44° C | 69% | 1006.5 hPa | 0 mm | - | 662 W/m² | - |
| 1778007086 | 29.44° C | 71% | 1006.9 hPa | 0 mm | - | 636 W/m² | - |
| 1778006783 | 29.44° C | 70% | 1006.9 hPa | 0 mm | - | 670 W/m² | - |
| 1778006480 | 28.89° C | 71% | 1006.7 hPa | 0 mm | - | 700 W/m² | - |
| 1778006177 | 28.89° C | 71% | 1007 hPa | 0 mm | - | 692 W/m² | - |
| 1778005874 | 29.44° C | 72% | 1007.1 hPa | 0 mm | - | 733 W/m² | - |
| 1778005570 | 29.44° C | 69% | 1007.1 hPa | 0 mm | - | 831 W/m² | - |
| 1778005267 | 29.44° C | 70% | 1007.2 hPa | 0 mm | - | 167 W/m² | - |
| 1778004964 | 28.89° C | 70% | 1007 hPa | 0 mm | - | 241 W/m² | - |
| 1778004661 | 28.89° C | 71% | 1007.3 hPa | 0 mm | - | 764 W/m² | - |
| 1778004357 | 28.33° C | 72% | 1007.3 hPa | 0 mm | - | 752 W/m² | - |
| 1778004055 | 28.33° C | 71% | 1007.4 hPa | 0 mm | - | 598 W/m² | - |
| 1778003750 | 28.89° C | 70% | 1007.3 hPa | 0 mm | - | 639 W/m² | - |
| 1778003447 | 28.89° C | 71% | 1007.6 hPa | 0 mm | - | 797 W/m² | - |
| 1778003144 | 28.33° C | 71% | 1007.6 hPa | 0 mm | - | 836 W/m² | - |
| 1778002840 | 27.78° C | 75% | 1007.6 hPa | 0 mm | - | 712 W/m² | - |
* Rain latest hour (hover to see other rain measurements)
** Current wind speed in m/s (hover to see current wind gust speed)